Location: Chiroubles
(46.1812°N, 4.6660°E)
Time: 16:17:03
(UTC+00:00)

Cosmos 2100 Rocket - Pass Details

Date: 15 August 2020
Orbit: 957 x 1000 km, 82.9° (Epoch: 22 September)

Event Time Altitude Azimuth Distance (km) Brightness Sun altitude
Exits shadow 21:36:57 28° 204° (SSW) 1,728 5.0 -23.5°
Maximum altitude 21:40:22 69° 280° (W) 1,025 4.2 -23.8°
Drops below altitude 10° 21:46:31 10° 4° (N) 2,702 7.0 -24.4°
Sets 21:49:03 0° 7° (N) 3,655 7.8 -24.6°
